Regional Weather Roundup
Issued by NWS

Home | Current Version | Previous Version | Graphics & Text | Print | Product List | Glossary Off
Versions: 1 2 3 4 5 6 7 8 9 10 11 12 13 14 15 16 17 18 19 20 21 22 23 24 25 26 27 28 29 30 31 32 33 34 35 36 37 38 39 40 41 42 43 44 45 46 47 48 49 50

000
ASUS45 KABQ 291401
RWRNM
NEW MEXICO REGIONAL WEATHER ROUNDUP
NATIONAL WEATHER SERVICE ALBUQUERQUE NM
800 AM MDT THU JUN 29 2017

NOTE: "FAIR" MEANS FEW OR NO CLOUDS BELOW 12,000 FEET AGL WITH NO
       SIGNIFICANT WEATHER OR OBSTRUCTIONS TO VISION.

      THIS PRODUCT IS RELEASED AS TWO VERSIONS.  ONE VERSION NEAR
      THE TOP OF THE HOUR CONTAINING PRELIMINARY DATA FROM ALBUQUERQUE
      AND OTHER STATIONS.  A FINAL VERSION WITH ADDITIONAL DATA IS
      ISSUED ABOUT 10 MINUTES AFTER THE HOUR.

NMZ501-503-504-510>518-291500-
NORTHWEST PLATEAU/NORTHCENTRAL MOUNTAINS

CITY           SKY/WX    TMP DP  RH WIND       PRES   REMARKS
FARMINGTON     FAIR      60  20  21 CALM      30.06R
LOS ALAMOS     FAIR      70  20  15 CALM      30.19S
SANTA FE       FAIR      71  26  18 CALM      30.14R
TAOS           FAIR      64  23  20 SW7       30.20R
ANGEL FIRE     FAIR      60  28  29 SW10      30.24S

$$
NMZ402-403-502-505>509-291500-
WESTCENTRAL MOUNTAINS/SOUTHWEST MOUNTAINS

CITY           SKY/WX    TMP DP  RH WIND       PRES   REMARKS
GALLUP         FAIR      69  30  23 SW9       30.19R
GRANTS         FAIR      69  29  22 E3        30.21S
SILVER CITY    FAIR      73  39  28 NW10      30.12R

$$
NMZ407-409-411-412-291500-
SOUTHERN DESERTS

CITY           SKY/WX    TMP DP  RH WIND       PRES   REMARKS
DEMING         FAIR      75  41  29 W8        30.04R
LAS CRUCES     FAIR      78  38  23 W5        30.04R
HOLLOMAN AFB   FAIR      77  29  17 E5        30.02R
ALAMOGORDO     FAIR      77  32  19 CALM      30.03R
T OR C         FAIR      80  34  19 NW10      30.04S

$$
NMZ519>523-291500-
CENTRAL VALLEYS/CENTRAL HIGHLANDS

CITY           SKY/WX    TMP DP  RH WIND       PRES   REMARKS
ALBUQUERQUE    FAIR      73  28  18 SW7       30.10R
DOUBLE EAGLE   SUNNY     73  30  20 W10       30.12S
MORIARTY ARPT  FAIR      74  27  17 W20G25    30.14R
CLINES CORNERS FAIR      69  23  17 W20       30.17R
BELEN          FAIR      77  28  16 W5        30.10R
SOCORRO        NOT AVBL

$$
NMZ524>526-539-540-291500-
SOUTHCENTRAL MOUNTAINS

CITY           SKY/WX    TMP DP  RH WIND       PRES   REMARKS
RUIDOSO        FAIR      72  32  23 W8        30.22R

$$
NMZ527>531-291500-
NORTHEAST HIGHLANDS/NORTHEAST PLAINS

CITY           SKY/WX    TMP DP  RH WIND       PRES   REMARKS
LAS VEGAS      FAIR      74  20  13 W14       30.12R
RATON          FAIR      65  25  22 NE8       30.04R
CLAYTON        FAIR      71  45  39 N17       29.95R

$$
NMZ532>537-291500-
EASTCENTRAL PLAINS

CITY           SKY/WX    TMP DP  RH WIND       PRES   REMARKS
SANTA ROSA     FAIR      78  26  14 W9        29.97R
TUCUMCARI      FAIR      79  32  18 W12       29.87R
CANNON AFB     NOT AVBL
CLOVIS AIRPORT FAIR      77  52  41 W16       29.91R

$$
NMZ028-029-538-291500-
SOUTHEAST PLAINS

CITY           SKY/WX    TMP DP  RH WIND       PRES   REMARKS
ROSWELL        FAIR      74  58  57 SE7       29.93R
ARTESIA        FAIR      75  59  57 CALM      29.92R
CARLSBAD       FAIR      75  61  61 CALM      29.89R
HOBBS          SUNNY     73  63  68 S9        29.93R


$$




USA.gov is the U.S. government's official web portal to all federal, state and local government web resources and services.